Location: Dampvalley
(47.9094°N, 6.1967°E)
Time: 10:02:08
(UTC+00:00)

N. Korean satellite - Visible Passes

Search period start: 17 September 2021 00:00
Search period end: 27 September 2021 00:00
Orbit: 448 x 499 km, 97.3° (Epoch: 16 September)

Date Brightness Start Highest point End Pass type
(mag) Time Alt. Az. Time Alt. Az. Time Alt. Az.
17 Sep 9.5 04:08:26 10° NE 04:11:03 20° E 04:13:41 10° SE visible
19 Sep 7.4 04:45:31 10° NNE 04:48:58 55° E 04:52:27 10° S visible
20 Sep 9.0 04:18:09 10° NE 04:21:08 26° E 04:24:08 10° SSE visible
21 Sep 9.9 03:51:30 10° ENE 03:53:11 13° E 03:54:52 10° ESE visible
23 Sep 8.5 04:27:54 10° NNE 04:31:09 33° E 04:34:25 10° SSE visible
24 Sep 9.7 04:00:51 10° NE 04:03:13 17° E 04:05:36 10° SE visible
26 Sep 7.9 04:37:39 10° NNE 04:41:06 44° E 04:44:33 10° S visible
